Rush City, MN

8:43 PM CDT on October 19, 2017 (GMT -0500)
Rush City Regional

Weather History for KROS - November, 2013

Change the Weather History Date:

Saturday, November 9, 2013

  Actual Average (KCBG) Record (KCBG)
Temperature  
Mean Temperature 38 °F -  
Max Temperature 40 °F 39 °F 68 °F (2010)
Min Temperature 36 °F 25 °F 9 °F (1985)
Degree Days  
Heating Degree Days 27    
Moisture  
Dew Point 32 °F    
Average Humidity 78    
Maximum Humidity 93    
Minimum Humidity 64    
Precipitation  
Precipitation 0.01 in - - ()
Sea Level Pressure  
Sea Level Pressure 29.86 in    
Wind  
Wind Speed 8 mph (West)    
Max Wind Speed 17 mph    
Max Gust Speed 28 mph    
Visibility 10 miles    
Events      
Averages and records for this station are not official NWS values.
T = Trace of Precipitation, MM = Missing Value Source: NWS Daily Summary

Daily Weather History Graph

Daily Weather History Graph

Search for Another Location

Airport or City:

Trip Planner

Search our weather history database for the weather conditions in past years. The results will help you decide how hot, cold, wet, or windy it might be!

Date:

Astronomy

Nov. 09, 2013 Rise Set
Actual Time 7:03 AM CST 4:47 PM CST
Civil Twilight 6:31 AM CST 5:19 PM CST
Nautical Twilight 5:55 AM CST 5:54 PM CST
Astronomical Twilight 5:21 AM CST 6:29 PM CST
Moon 12:37 PM CST (11/9) 11:22 PM CST (11/9)
Length of Visible Light 10h 47m
Length of Day
9h 43m
Waxing Crescent, 44% of the Moon is Illuminated
Nov 9
Waxing Crescent
Nov 9
First Quarter
Nov 17
Full
Nov 25
Last Quarter
Dec 2
New

Hourly Weather History & Observations

Time (CST) Temp. Windchill Dew Point Humidity Pressure Visibility Wind Dir Wind Speed Gust Speed Precip Events Conditions
12:05 AM 37.4 °F - 35.6 °F 93% 29.58 in 10.0 mi Calm Calm - N/A   Overcast
12:25 AM 37.4 °F - 35.6 °F 93% 29.58 in 10.0 mi Calm Calm - N/A   Overcast
12:45 AM 37.4 °F 34.9 °F 35.6 °F 93% 29.58 in 10.0 mi SSW 3.5 mph - N/A   Overcast
1:05 AM 39.2 °F 37.0 °F 37.4 °F 93% 29.59 in 10.0 mi WSW 3.5 mph - N/A   Overcast
1:25 AM 39.2 °F 35.0 °F 37.4 °F 93% 29.59 in 10.0 mi WSW 5.8 mph - N/A   Overcast
1:45 AM 39.2 °F 35.0 °F 37.4 °F 93% 29.61 in 10.0 mi WSW 5.8 mph - N/A   Overcast
2:05 AM 39.2 °F 33.0 °F 37.4 °F 93% 29.61 in 10.0 mi West 9.2 mph - N/A   Overcast
2:25 AM 39.2 °F 33.0 °F 37.4 °F 93% 29.62 in 10.0 mi West 9.2 mph - N/A   Overcast
2:45 AM 39.2 °F 32.5 °F 37.4 °F 93% 29.62 in 10.0 mi West 10.4 mph - N/A   Overcast
3:05 AM 39.2 °F 33.6 °F 37.4 °F 93% 29.63 in 10.0 mi West 8.1 mph - N/A   Overcast
3:25 AM 39.2 °F 33.0 °F 37.4 °F 93% 29.64 in 10.0 mi West 9.2 mph - N/A   Overcast
3:45 AM 39.2 °F 35.0 °F 37.4 °F 93% 29.64 in 10.0 mi West 5.8 mph - N/A   Overcast
4:05 AM 39.2 °F 35.9 °F 37.4 °F 93% 29.64 in 10.0 mi West 4.6 mph - N/A   Overcast
4:25 AM 39.2 °F 33.6 °F 37.4 °F 93% 29.66 in 10.0 mi WSW 8.1 mph - N/A   Overcast
4:45 AM 39.2 °F 33.0 °F 35.6 °F 87% 29.67 in 10.0 mi West 9.2 mph - N/A   Overcast
5:05 AM 39.2 °F 33.0 °F 35.6 °F 87% 29.67 in 10.0 mi West 9.2 mph - N/A   Overcast
5:25 AM 39.2 °F 33.0 °F 35.6 °F 87% 29.68 in 10.0 mi West 9.2 mph 16.1 mph N/A   Overcast
5:45 AM 39.2 °F 33.6 °F 35.6 °F 87% 29.68 in 10.0 mi West 8.1 mph - N/A   Overcast
6:05 AM 39.2 °F 33.0 °F 35.6 °F 87% 29.69 in 10.0 mi West 9.2 mph 16.1 mph N/A   Overcast
6:25 AM 39.2 °F 32.0 °F 35.6 °F 87% 29.70 in 10.0 mi West 11.5 mph 16.1 mph N/A   Overcast
6:45 AM 39.2 °F 34.2 °F 35.6 °F 87% 29.71 in 10.0 mi West 6.9 mph - N/A   Overcast
7:05 AM 39.2 °F 35.0 °F 35.6 °F 87% 29.72 in 10.0 mi West 5.8 mph - N/A   Overcast
7:25 AM 39.2 °F 34.2 °F 35.6 °F 87% 29.73 in 10.0 mi West 6.9 mph - N/A   Overcast
7:45 AM 39.2 °F 33.0 °F 35.6 °F 87% 29.74 in 10.0 mi West 9.2 mph - N/A   Overcast
8:05 AM 39.2 °F 33.6 °F 35.6 °F 87% 29.75 in 10.0 mi West 8.1 mph 18.4 mph N/A   Overcast
8:25 AM 39.2 °F 32.0 °F 35.6 °F 87% 29.76 in 10.0 mi West 11.5 mph 17.3 mph N/A   Overcast
8:45 AM 39.2 °F 30.8 °F 33.8 °F 81% 29.77 in 10.0 mi West 15.0 mph 23.0 mph N/A   Overcast
9:05 AM 39.2 °F 31.6 °F 33.8 °F 81% 29.78 in 10.0 mi West 12.7 mph 20.7 mph N/A   Overcast
9:25 AM 39.2 °F 32.0 °F 33.8 °F 81% 29.79 in 10.0 mi WNW 11.5 mph 20.7 mph N/A   Overcast
9:45 AM 39.2 °F 30.2 °F 32.0 °F 75% 29.80 in 10.0 mi WNW 17.3 mph 26.5 mph N/A   Overcast
10:05 AM 39.2 °F 30.5 °F 32.0 °F 75% 29.82 in 10.0 mi WNW 16.1 mph 23.0 mph N/A   Overcast
10:25 AM 39.2 °F 30.8 °F 32.0 °F 75% 29.83 in 10.0 mi WNW 15.0 mph 25.3 mph N/A   Overcast
10:45 AM 39.2 °F 30.5 °F 32.0 °F 75% 29.84 in 10.0 mi WNW 16.1 mph 27.6 mph N/A   Overcast
11:05 AM 39.2 °F 32.0 °F 32.0 °F 75% 29.85 in 10.0 mi WNW 11.5 mph - N/A   Overcast
11:24 AM 39.6 °F 32.5 °F 32.0 °F 74% 29.86 in 10.0 mi WNW 11.5 mph 23.0 mph N/A   Overcast
11:34 AM 39.6 °F 34.0 °F 32.0 °F 74% 29.86 in 10.0 mi WNW 8.1 mph 24.2 mph N/A   Overcast
11:55 AM 40.1 °F 32.4 °F 31.8 °F 72% 29.86 in 10.0 mi WNW 13.8 mph 25.3 mph N/A   Overcast
12:15 PM 40.6 °F 35.4 °F 32.0 °F 71% 29.86 in 10.0 mi West 8.1 mph 20.7 mph N/A   Overcast
12:34 PM 40.6 °F 34.8 °F 32.0 °F 71% 29.87 in 10.0 mi West 9.2 mph 18.4 mph N/A   Overcast
12:55 PM 40.5 °F 35.1 °F 32.5 °F 73% 29.87 in 10.0 mi West 8.1 mph 19.6 mph N/A   Overcast
1:15 PM 40.1 °F 32.7 °F 32.0 °F 73% 29.88 in 10.0 mi West 12.7 mph 21.9 mph N/A   Overcast
1:35 PM 39.6 °F 31.7 °F 31.1 °F 72% 29.89 in 10.0 mi West 13.8 mph 25.3 mph N/A   Overcast
1:55 PM 39.6 °F 31.0 °F 30.4 °F 70% 29.89 in 10.0 mi West 16.1 mph 27.6 mph N/A   Overcast
2:15 PM 39.0 °F 30.6 °F 29.8 °F 70% 29.90 in 10.0 mi West 15.0 mph 24.2 mph N/A   Overcast
2:35 PM 38.5 °F 30.3 °F 28.0 °F 66% 29.92 in 10.0 mi WNW 13.8 mph 27.6 mph N/A   Overcast
2:55 PM 37.9 °F 29.6 °F 27.5 °F 66% 29.93 in 10.0 mi West 13.8 mph 20.7 mph N/A   Overcast
3:15 PM 37.4 °F 28.9 °F 27.3 °F 67% 29.94 in 10.0 mi West 13.8 mph 19.6 mph N/A   Overcast
3:35 PM 37.4 °F 28.9 °F 26.4 °F 65% 29.95 in 10.0 mi West 13.8 mph 19.6 mph N/A   Overcast
3:55 PM 37.4 °F 29.8 °F 26.2 °F 64% 29.96 in 10.0 mi West 11.5 mph 19.6 mph N/A   Overcast
4:15 PM 37.4 °F 29.3 °F 26.2 °F 64% 29.97 in 10.0 mi West 12.7 mph 20.7 mph N/A   Overcast
4:35 PM 37.4 °F 30.3 °F 26.6 °F 65% 29.98 in 10.0 mi West 10.4 mph 24.2 mph N/A   Overcast
4:55 PM 36.9 °F 30.1 °F 27.1 °F 68% 29.98 in 10.0 mi West 9.2 mph 18.4 mph N/A   Overcast
5:15 PM 36.7 °F 29.4 °F 27.5 °F 69% 30.00 in 10.0 mi WNW 10.4 mph 18.4 mph N/A   Overcast
5:35 PM 36.7 °F 27.2 °F 26.6 °F 67% 30.01 in 10.0 mi WNW 16.1 mph 27.6 mph N/A   Overcast
5:55 PM 36.5 °F 29.2 °F 27.1 °F 69% 30.02 in 10.0 mi West 10.4 mph 17.3 mph N/A   Overcast
6:15 PM 36.5 °F 27.0 °F 27.3 °F 69% 30.03 in 10.0 mi West 16.1 mph 21.9 mph N/A   Overcast
6:35 PM 36.5 °F 27.8 °F 27.5 °F 70% 30.04 in 10.0 mi West 13.8 mph 18.4 mph N/A   Overcast
6:55 PM 36.5 °F 27.4 °F 27.9 °F 71% 30.05 in 10.0 mi WNW 15.0 mph 20.7 mph N/A   Overcast
7:15 PM 36.0 °F 27.5 °F 28.4 °F 74% 30.05 in 10.0 mi West 12.7 mph 17.3 mph N/A   Overcast
7:35 PM 36.0 °F 28.0 °F 28.4 °F 74% 30.05 in 10.0 mi West 11.5 mph 19.6 mph N/A   Overcast
7:55 PM 36.1 °F 27.7 °F 28.2 °F 73% 30.06 in 10.0 mi West 12.7 mph 23.0 mph N/A   Overcast
8:14 PM 36.5 °F 29.2 °F 28.4 °F 72% 30.07 in 10.0 mi West 10.4 mph 20.7 mph N/A   Overcast
8:35 PM 36.5 °F 27.8 °F 28.4 °F 72% 30.07 in 10.0 mi West 13.8 mph 19.6 mph N/A   Overcast
8:54 PM 36.5 °F 28.2 °F 28.4 °F 72% 30.08 in 10.0 mi West 12.7 mph 19.6 mph N/A   Overcast
9:15 PM 36.5 °F 28.2 °F 28.6 °F 73% 30.09 in 10.0 mi West 12.7 mph 21.9 mph N/A   Overcast
9:35 PM 36.7 °F 28.9 °F 28.9 °F 74% 30.09 in 10.0 mi West 11.5 mph 21.9 mph N/A   Overcast
9:54 PM 36.5 °F 29.7 °F 28.9 °F 74% 30.10 in 10.0 mi WNW 9.2 mph - N/A   Overcast
10:15 PM 36.5 °F 29.2 °F 29.3 °F 75% 30.11 in 10.0 mi West 10.4 mph 17.3 mph N/A   Overcast
10:35 PM 36.7 °F 29.4 °F 29.3 °F 75% 30.11 in 10.0 mi WNW 10.4 mph 19.6 mph N/A   Overcast
10:54 PM 36.7 °F 30.5 °F 29.3 °F 75% 30.13 in 10.0 mi WNW 8.1 mph - N/A   Overcast
11:15 PM 36.9 °F 31.4 °F 29.3 °F 74% 30.14 in 10.0 mi WNW 6.9 mph 16.1 mph N/A   Overcast
11:35 PM 37.0 °F 28.9 °F 29.3 °F 74% 30.14 in 10.0 mi NW 12.7 mph - N/A   Overcast
11:54 PM 37.4 °F 29.3 °F 28.9 °F 71% 30.15 in 10.0 mi NW 12.7 mph 18.4 mph N/A   Overcast